Location: CNYAC Observatory
(43.2150°N, 74.9500°W)
Time: 00:52:16
(UTC-04:00)

Cosmos 1975 Rocket - Visible Passes

Search period start: 31 October 2014 00:00
Search period end: 09 November 2014 23:00
Orbit: 605 x 636 km, 82.5° (Epoch: 30 October)

Date Brightness Start Highest point End Pass type
(mag) Time Alt. Az. Time Alt. Az. Time Alt. Az.
31 Oct 5.2 19:54:10 10° S 19:54:44 14° S 19:54:44 14° S visible
01 Nov 5.9 06:02:41 10° NNE 06:05:44 18° ENE 06:08:47 10° ESE visible
01 Nov 4.2 20:11:54 10° SSW 20:14:22 33° SSW 20:14:22 33° SSW visible
02 Nov 5.0 05:19:48 10° NNE 05:23:45 32° ENE 05:27:43 10° SE visible
02 Nov 4.3 17:53:26 10° SE 17:56:28 19° E 17:56:48 19° E visible
02 Nov 4.4 19:30:06 10° SW 19:34:05 36° WNW 19:34:07 36° WNW visible
03 Nov 3.7 05:37:18 10° N 05:41:41 59° E 05:46:03 10° SSE visible
03 Nov 3.6 18:10:10 10° SSE 18:14:05 35° E 18:16:40 18° NE visible
03 Nov 5.5 19:48:51 10° WSW 19:52:05 20° WNW 19:53:59 16° NW visible
04 Nov 6.3 04:19:45 10° NE 04:21:04 11° ENE 04:22:23 10° E visible
04 Nov 3.0 05:55:05 10° NNW 05:59:30 73° W 06:03:55 10° S visible
04 Nov 2.9 18:27:31 10° S 18:31:47 68° E 18:36:06 10° NNE visible
04 Nov 6.2 20:08:45 10° W 20:10:11 11° WNW 20:11:38 10° NW visible
05 Nov 5.7 04:35:55 10° NNE 04:39:11 20° ENE 04:42:27 10° ESE visible
05 Nov 3.4 18:45:19 10° SSW 18:49:35 63° W 18:53:54 10° N visible
06 Nov 4.7 04:53:07 10° N 04:57:11 35° ENE 05:01:16 10° SE visible
06 Nov 4.2 17:26:36 10° SE 17:29:49 21° E 17:33:04 10° NE visible
06 Nov 4.7 19:03:35 10° SW 19:07:29 33° WNW 19:11:26 10° N visible
07 Nov 3.5 05:10:40 10° N 05:15:05 66° E 05:19:31 10° SSE visible
07 Nov 3.5 17:43:27 10° SSE 17:47:26 38° E 17:51:28 10° NNE visible
07 Nov 5.7 19:22:27 10° WSW 19:25:30 19° WNW 19:28:35 10° NNW visible
08 Nov 6.2 03:52:40 10° NE 03:54:31 12° ENE 03:56:23 10° E visible
08 Nov 3.0 05:28:29 10° NNW 05:32:54 66° W 05:37:18 10° S visible
08 Nov 2.9 18:00:52 10° S 18:05:09 75° E 18:09:30 10° NNE visible
08 Nov 6.3 19:42:53 10° WNW 19:43:38 10° WNW 19:44:23 10° NW visible
09 Nov 5.5 04:09:10 10° NNE 04:12:37 22° ENE 04:16:04 10° ESE visible
09 Nov 3.7 05:46:34 10° NNW 05:50:36 35° W 05:54:38 10° SSW visible
09 Nov 3.7 18:18:44 10° SSW 18:22:58 57° W 18:27:16 10° N visible
